This is the latest recevied weather packets stored in our database for station/object N4TLC. If no packets are shown the sender has not sent any weather packets the latest 10 day(s).
| Time | Temp. | Humidity | Pressure | Rain* | Wind** | Luminosity | Snow |
|---|---|---|---|---|---|---|---|
| 1777748384 | 13.89° C | 42% | 1014.9 hPa | 0 mm | - | 384 W/m² | - |
| 1777748080 | 13.33° C | 44% | 1014.7 hPa | 0 mm | - | 362 W/m² | - |
| 1777747777 | 12.78° C | 41% | 1014.8 hPa | 0 mm | - | 406 W/m² | - |
| 1777747472 | 13.33° C | 44% | 1014.8 hPa | 0 mm | - | 307 W/m² | - |
| 1777747169 | 13.33° C | 43% | 1015 hPa | 0 mm | - | 321 W/m² | - |
| 1777746865 | 12.78° C | 42% | 1014.9 hPa | 0 mm | - | 311 W/m² | - |
| 1777746560 | 12.78° C | 42% | 1015 hPa | 0 mm | - | 291 W/m² | - |
| 1777746256 | 12.78° C | 43% | 1015 hPa | 0 mm | - | 231 W/m² | - |
| 1777745952 | 12.78° C | 42% | 1015 hPa | 0 mm | - | 236 W/m² | - |
| 1777745651 | 12.78° C | 43% | 1014.8 hPa | 0 mm | - | 229 W/m² | - |
| 1777745349 | 12.22° C | 43% | 1014.8 hPa | 0 mm | - | 204 W/m² | - |
| 1777745046 | 12.22° C | 41% | 1015.1 hPa | 0 mm | - | 175 W/m² | - |
| 1777744742 | 12.78° C | 42% | 1015 hPa | 0 mm | - | 174 W/m² | - |
| 1777744436 | 12.78° C | 45% | 1015.2 hPa | 0 mm | - | 186 W/m² | - |
| 1777744133 | 12.78° C | 45% | 1015.2 hPa | 0 mm | - | 186 W/m² | - |
| 1777743830 | 12.78° C | 46% | 1015.1 hPa | 0 mm | - | 197 W/m² | - |
| 1777743526 | 12.78° C | 46% | 1015.1 hPa | 0 mm | - | 226 W/m² | - |
| 1777743224 | 12.22° C | 45% | 1015.3 hPa | 0 mm | - | 222 W/m² | - |
| 1777742922 | 12.22° C | 48% | 1015.5 hPa | 0 mm | - | 227 W/m² | - |
| 1777742618 | 12.78° C | 46% | 1015.3 hPa | 0 mm | - | 271 W/m² | - |
| 1777742314 | 12.78° C | 45% | 1015.3 hPa | 0 mm | - | 292 W/m² | - |
| 1777742011 | 12.78° C | 46% | 1015.4 hPa | 0 mm | - | 298 W/m² | - |
| 1777741708 | 12.22° C | 46% | 1015.3 hPa | 0 mm | - | 313 W/m² | - |
| 1777741404 | 12.78° C | 46% | 1015.3 hPa | 0 mm | - | 298 W/m² | - |
| 1777741101 | 12.22° C | 45% | 1015.5 hPa | 0 mm | - | 295 W/m² | - |
* Rain latest hour (hover to see other rain measurements)
** Current wind speed in m/s (hover to see current wind gust speed)